Location: B?lite?ti
(46.2833°N, 22.7333°E)
Time: 03:19:13
(UTC+00:00)

ERS-2 - Pass Details

Date: 24 January 2021
Orbit: 492 x 497 km, 98.6° (Epoch: 26 February)

Event Time Altitude Azimuth Distance (km) Brightness Sun altitude
Exits shadow 16:15:34 - 39° (NE) 1,802 4.4 -9.4°
Reaches altitude 10° 16:15:52 10° 42° (NE) 1,696 4.3 -9.4°
Maximum altitude 16:18:50 23° 96° (E) 1,082 3.3 -9.9°
Drops below altitude 10° 16:21:47 10° 151° (SSE) 1,682 4.7 -10.4°
Sets 16:24:08 0° 166° (SSE) 2,558 5.8 -10.8°
